User: anonymous   Login
Location: Unspecified
(0.0000°N, 0.0000°E)
Time: 19:26:24
(UTC+00:00)
Language:

STARLINK-30767 - Orbit

View from above orbital plane
View from above orbital plane
View from above satellite
View from above satellite

Ground track
Ground track

The orbit is defined by the following mean orbital elements,

1 58126U          26145.18419346 +.00000000 +00000-0 +16323-4 0 00008
2 58126  43.0045  57.2744 0001448 274.1939  85.8747 15.27571074    09
Epoch (UTC): 25 May 2026 04:25:14
Eccentricity: 0.0001448
inclination: 43.0045°
perigee height: 482 km
apogee height: 484 km
right ascension of ascending node: 57.2744°
argument of perigee: 274.1939°
revolutions per day: 15.27571074
mean anomaly at epoch: 85.8747°

The dashed part of the orbit path shows where the satellite is in the earth's shadow,  

DLR